Location: Bergnerzell
(49.1816°N, 10.2565°E)
Time: 20:12:30
(UTC+00:00)

MSX - Pass Details

Date: 23 May 2024
Orbit: 893 x 906 km, 99.0° (Epoch: 23 June)

Event Time Altitude Azimuth Distance (km) Brightness Sun altitude
Rises 02:02:45 0° 11° (N) 3,527 8.1 -10.9°
Reaches altitude 10° 02:05:14 10° 6° (N) 2,581 7.2 -10.7°
Maximum altitude 02:10:43 49° 294° (WNW) 1,151 4.3 -10.1°
Enters shadow 02:15:47 12° 222° (SW) 2,421 5.4 -9.5°
